STARLINK-11692 [DTC] (64381 NORAD) Tracking and Keplerian Element Data

This shows tracking and keplerian element data for the satellite.

Feedback or suggestion? Click here.




ElementValue
Catalog64381
NameSTARLINK-11692 [DTC]
Epoch Orbit3091
Epoch Day352.94092917
Epoch Year2025
RAAN211.1751
Inclination42.9995
Eccentricity0.0001567
Argument of Perigee265.4539
Mean Anonmoly94.615
Mean Motion15.7083007
Decay Rate0.0038392
L11 64381U 25127M 25352.94092917 .00383920 00000+0 28606-2 0 9995
L22 64381 42.9995 211.1751 0001567 265.4539 94.6150 15.70830070 30912



Live tracking and technical data element details for STARLINK-11692 [DTC] (NORAD 64381). STARLINK-11692 [DTC] can be tracked NOW for your location showing map with azimuth and elevation plus other details from your city location.







IsCatalogInMostPopularTable: catalog: 64381, numindb: 4
Update: records affected: 1



GetName: 64381 STARLINK-11692 [DTC]

Hit Count: updated at: Mon, 09 Feb 2026 07:39:06 GMT